Theta_e
311 311 310 310 309 309 309 308 307 306 305 304 304 304 304 304 304 304 303 303 302 302 303 304 305 306 307 307 307 308 310 309 308 308 308 308 308 307 307 307 306 306 306
309 309 309 308 306 305 304 304 303 304 304 304 304 303 302 302 301 301 300 300 300 300 301 301 302 303 304 304 305 305 304 307 306 306 307 306 306 306 306 306 306 305 305
306 305 305 304 304 304 304 304 304 303 302 301 300 299 299 299 299 298 298 298 298 298 298 299 300 302 302 303 304 304 303 303 303 303 304 304 305 305 305 304 304 304 304
303 303 303 303 303 303 302 300 300 299 299 298 298 298 297 297 297 296 296 296 296 296 296 297 297 299 301 302 302 302 301 301 301 302 303 303 303 303 303 303 303 302 301
302 302 302 301 300 300 299 299 298 297 296 296 295 295 295 295 295 295 295 295 295 295 295 296 297 297 299 301 301 302 300 300 301 301 300 300 301 301 301 300 299 298 298
301 301 300 299 299 299 298 298 296 295 295 294 294 294 294 294 294 294 294 294 294 294 294 295 295 296 297 299 300 300 298 298 299 299 299 298 298 298 297 297 296 295 294
299 298 298 298 298 297 296 295 294 294 294 294 294 293 293 293 293 293 293 293 293 294 294 294 294 295 296 297 298 298 298 296 296 297 296 297 296 296 295 294 294 293 291
298 297 297 297 295 294 294 293 293 293 293 293 293 292 292 292 292 291 291 291 292 292 293 294 294 295 295 295 296 296 295 295 295 295 295 296 296 294 293 293 291 290 289
296 296 295 294 293 293 292 292 292 292 292 291 291 291 291 291 291 290 290 290 290 291 292 293 294 295 295 293 293 292 293 293 293 293 293 292 292 291 291 290 289 288 287
295 294 293 292 291 291 290 290 290 290 290 290 290 290 290 290 290 289 289 290 290 291 292 293 294 293 292 291 290 290 290 290 289 289 289 289 289 289 288 288 287 288 289
293 292 291 290 290 290 290 290 290 290 290 290 290 290 289 289 289 289 289 290 291 292 292 291 291 290 289 289 288 288 288 288 288 288 287 287 287 288 288 287 288 288 289
290 290 290 290 289 289 289 289 289 289 289 289 289 289 289 289 289 289 289 290 291 290 290 289 288 288 287 287 287 288 287 287 287 287 287 288 288 288 288 288 288 288 288
289 289 289 289 289 289 289 288 288 288 288 288 288 288 289 288 289 289 289 290 291 289 288 288 287 287 287 287 287 287 287 287 287 288 288 288 288 288 288 287 287 287 286
289 289 289 289 289 288 288 288 287 287 287 287 287 287 288 288 288 289 289 289 289 287 287 287 287 287 287 287 287 287 287 287 288 288 288 288 287 287 287 286 286 285 285
289 289 289 289 288 288 288 287 287 287 286 286 286 286 286 287 288 288 286 287 287 287 286 286 286 286 287 287 287 287 287 288 288 288 287 287 286 286 286 285 285 284 284
288 288 288 288 287 287 287 288 287 287 286 286 285 284 286 285 287 287 286 287 286 286 286 286 287 287 287 287 287 287 287 288 287 287 286 286 286 285 284 284 283 282 282
288 287 287 287 287 287 286 286 287 289 287 286 285 284 284 285 286 287 286 287 286 286 286 286 287 287 287 287 287 287 287 287 286 286 286 285 284 283 282 282 281 280 280
287 287 287 287 286 285 284 284 283 283 285 286 284 283 284 285 287 287 286 286 286 286 286 286 287 287 287 287 287 287 287 286 285 284 283 282 282 281 280 280 279 278 278
287 287 286 285 284 283 283 282 281 281 281 282 283 283 283 284 286 286 287 286 286 286 286 286 287 287 287 287 286 286 285 284 283 282 281 280 279 279 278 278 277 277 276
286 285 284 284 283 282 281 280 280 279 279 279 279 280 281 281 283 285 286 286 287 286 286 286 286 286 286 286 285 283 282 281 281 280 279 278 278 277 277 276 276 275 275
284 283 282 281 281 280 279 279 278 277 277 278 278 279 279 280 282 283 285 286 286 286 286 286 286 286 285 284 282 281 280 280 279 278 277 277 277 276 275 275 275 274 274
282 282 281 280 279 279 278 278 277 277 277 277 278 278 279 280 281 281 283 284 285 286 286 286 285 284 283 281 280 280 279 278 278 277 276 276 276 275 274 274 274 273 273
280 280 279 278 277 277 277 277 276 276 276 276 276 277 279 279 279 280 281 283 284 285 285 285 284 282 281 279 279 278 278 277 276 276 275 275 275 274 274 273 273 273 272
279 278 277 276 276 276 276 276 276 276 275 274 275 276 277 278 279 280 280 282 283 283 283 284 283 280 279 278 277 277 276 276 276 275 274 274 274 273 273 273 272 272 272
276 276 275 275 275 275 275 275 275 275 275 274 275 276 276 277 278 279 280 280 281 281 282 281 279 278 278 277 276 276 276 275 275 274 274 273 273 273 272 272 272 271 271
275 275 274 274 274 274 274 274 275 274 274 274 275 275 276 276 277 278 278 278 279 280 279 277 277 276 277 278 277 276 275 274 274 273 273 273 272 272 272 271 271 270 270
Wind_Speed
12 11 9 8 6 5 4 5 6 8 10 12 14 17 19 22 24 26 28 29 31 32 32 34 35 35 38 38 38 36 39 38 44 62 49 49 50 49 47 43 41 39 39
11 9 8 7 6 6 6 7 9 11 14 17 20 22 24 26 28 29 30 31 33 35 35 37 38 38 39 38 37 38 37 39 40 47 53 50 49 51 48 46 43 41 41
9 7 6 5 5 7 9 12 14 17 19 21 24 26 27 28 30 31 33 35 36 37 38 39 40 41 42 40 40 39 38 37 40 43 51 47 49 49 47 45 44 43 41
6 5 4 5 6 9 12 15 17 20 22 24 26 28 29 30 32 34 36 38 39 40 41 41 41 41 42 42 42 41 39 38 40 41 48 50 48 48 46 45 44 40 37
4 3 5 7 9 12 14 17 20 22 24 25 26 27 29 31 32 35 38 40 41 43 42 42 42 42 41 41 42 43 40 39 41 44 47 47 47 47 46 43 38 36 34
2 4 6 9 13 16 20 23 25 26 26 28 29 32 34 34 35 37 40 43 44 45 47 46 45 45 43 42 41 40 38 38 41 43 45 44 44 42 42 40 35 30 24
4 8 11 14 18 22 24 26 27 28 30 32 33 35 37 38 39 41 43 45 47 48 48 49 49 47 45 44 43 42 41 38 37 41 44 44 43 40 38 34 26 21 16
7 11 15 19 23 24 26 27 30 32 34 36 38 40 42 43 43 44 46 48 49 49 49 48 48 48 45 43 43 43 41 39 37 37 39 40 38 33 27 22 17 13 7
10 15 20 23 24 26 28 30 32 35 37 39 41 43 44 45 44 45 47 49 50 51 50 48 47 46 40 37 38 40 38 36 33 31 28 25 21 17 14 11 9 10 12
15 19 22 23 25 27 30 32 34 36 39 42 44 44 46 48 47 45 44 46 48 48 48 47 45 39 35 32 33 31 32 28 22 17 13 11 7 3 5 5 10 10 15
18 19 20 22 25 27 30 32 35 38 40 42 45 46 46 47 47 45 44 44 44 44 44 42 39 34 32 27 21 20 19 16 8 4 5 11 12 13 14 14 11 12 7
17 19 20 22 25 29 33 35 37 39 42 43 44 45 46 47 47 45 43 39 37 36 35 35 32 27 17 15 15 11 5 3 7 11 12 13 14 14 12 10 8 6 6
17 19 22 25 28 32 36 38 41 41 43 45 46 46 48 48 47 45 42 38 34 27 27 26 20 12 13 8 4 2 2 5 9 14 14 13 11 10 8 6 5 5 4
19 22 26 31 34 37 39 41 43 44 45 46 47 48 49 49 47 41 38 35 29 22 21 15 9 8 4 2 1 4 7 12 12 10 8 7 6 6 4 3 3 3 3
23 27 31 35 39 41 42 43 45 46 44 46 47 46 47 49 45 35 32 32 27 19 15 8 7 5 5 4 7 10 11 8 6 5 4 4 4 3 2 1 1 1 1
27 31 35 38 40 42 46 48 46 47 46 46 46 43 46 41 39 32 33 27 20 18 12 10 10 8 6 9 9 9 7 4 2 1 2 2 1 0 0 1 1 1 1
30 33 36 38 40 42 43 44 48 49 46 46 44 42 39 38 32 29 27 24 17 15 15 13 14 13 11 10 10 8 6 4 3 2 2 2 1 1 2 3 3 3 2
30 32 34 36 37 38 40 42 44 47 52 54 47 41 37 29 26 26 21 19 19 18 18 19 19 16 14 12 11 9 8 6 5 4 3 3 3 4 5 5 4 4 3
29 30 31 33 35 37 39 41 43 44 45 48 48 42 33 25 22 21 19 20 23 21 20 20 19 18 16 14 12 10 8 6 6 5 6 6 6 6 6 6 5 4 3
27 29 31 33 35 37 38 39 40 40 41 41 40 38 31 22 24 20 18 23 24 22 20 22 21 19 16 14 12 10 9 8 8 8 8 7 7 7 6 6 5 4 4
27 29 30 31 33 34 36 37 37 37 38 38 38 33 26 23 27 23 24 23 25 24 20 19 19 17 15 13 12 10 10 9 9 10 8 8 8 7 6 6 6 6 6
25 28 29 30 31 32 33 33 34 34 34 34 33 29 19 20 23 26 26 24 26 26 23 20 18 16 15 13 11 11 11 11 11 10 8 9 9 8 7 7 7 7 7
25 27 28 28 28 29 31 30 31 31 31 30 27 23 22 25 23 22 24 24 23 25 24 21 18 16 14 12 11 12 11 11 10 10 10 10 9 8 7 7 8 8 7
23 24 25 25 26 26 28 28 28 26 25 25 23 22 24 22 21 20 20 22 23 23 22 20 17 15 13 11 11 11 11 11 11 11 10 10 9 8 8 8 8 8 8
20 21 22 22 23 24 25 25 24 23 23 22 22 21 20 19 18 17 18 19 21 21 19 16 15 13 12 10 10 11 12 12 12 11 10 10 9 9 8 8 9 9 9
18 19 19 20 20 21 22 22 22 21 20 19 17 16 15 13 12 12 13 15 17 17 13 13 12 11 10 10 12 14 14 13 12 12 12 11 11 9 9 9 10 9 10
Wind_Direction
114 109 106 96 79 57 31 11 353 343 339 338 337 333 328 325 322 318 315 313 311 310 309 307 305 303 299 296 292 285 279 278 274 287 284 289 289 292 294 297 297 298 295
111 103 92 78 58 34 17 3 354 343 336 331 328 326 324 322 321 320 317 316 315 313 312 309 307 305 302 301 298 293 285 277 279 278 287 288 289 292 294 294 295 295 295
110 100 85 59 30 5 352 344 337 333 330 329 328 326 324 323 322 321 319 318 316 314 312 311 310 308 305 303 301 295 290 288 282 280 284 285 288 290 291 291 293 294 295
110 89 56 20 1 350 343 337 333 329 326 324 322 321 320 319 319 317 315 313 312 312 311 310 309 307 305 304 302 298 296 291 288 284 282 285 286 286 287 289 291 294 295
100 49 11 353 346 339 332 327 324 320 317 316 315 314 315 315 316 315 314 312 312 311 310 310 309 307 304 301 299 297 294 289 287 286 286 287 286 287 289 293 294 295 296
53 355 347 338 333 330 326 323 321 320 319 318 318 318 318 317 316 315 314 313 312 311 311 310 308 307 305 301 297 294 290 286 285 285 285 284 286 288 291 293 292 290 290
344 337 334 331 328 325 323 322 321 320 319 318 318 317 315 316 316 315 314 311 310 310 310 310 309 307 305 302 299 295 292 291 286 286 284 283 285 287 289 288 283 278 270
327 328 325 323 322 321 320 321 320 319 319 319 317 316 314 315 315 313 312 310 309 309 309 308 306 305 304 301 298 295 296 297 293 287 285 286 286 284 277 276 271 259 236
319 322 321 320 319 320 320 321 321 319 318 317 317 315 314 313 314 315 314 312 310 309 309 307 306 305 305 299 296 295 296 297 297 293 288 285 282 277 275 263 233 186 158
315 317 318 318 320 321 321 321 320 319 318 316 315 313 312 311 311 312 312 312 311 310 308 307 306 307 306 303 298 298 297 302 305 302 295 282 265 194 137 136 141 154 137
313 316 317 318 319 321 320 321 320 318 316 316 315 314 313 310 309 310 312 314 313 311 309 308 309 310 307 304 301 295 294 297 297 271 140 120 116 115 118 123 123 135 122
310 314 317 320 321 320 319 319 317 315 314 313 313 314 316 315 314 312 312 313 311 308 302 304 309 312 311 309 308 309 294 242 151 136 127 117 113 114 115 110 101 93 93
313 317 318 318 318 316 314 314 312 310 309 308 308 310 312 314 314 314 313 314 315 307 303 306 307 309 314 328 7 1 140 161 156 138 124 114 107 108 113 111 98 83 84
315 316 315 315 315 313 311 310 309 307 307 306 306 307 308 308 311 315 316 315 316 306 307 306 301 307 308 315 104 127 138 139 136 129 123 122 122 121 117 100 83 87 81
312 314 314 314 313 312 310 308 306 304 305 304 302 303 302 304 307 308 306 307 305 301 299 290 282 270 254 183 154 147 150 145 135 124 127 131 134 122 103 74 42 22 36
313 313 312 311 311 311 311 311 308 306 305 302 301 301 300 299 301 297 296 296 289 285 267 251 249 238 215 186 173 170 175 183 186 166 137 137 153 226 301 303 291 315 347
308 309 311 313 314 313 311 309 311 313 309 306 305 305 303 302 296 289 287 287 266 264 248 243 236 231 217 199 198 203 216 233 241 240 252 255 247 266 277 285 289 299 297
307 310 314 313 312 312 312 312 311 310 310 309 310 310 306 303 292 283 277 271 255 243 241 240 242 235 227 223 227 235 242 245 248 246 244 253 264 270 270 268 265 266 262
307 311 312 313 314 315 315 314 314 313 310 308 308 309 313 306 291 279 271 242 249 245 243 241 235 230 231 235 235 237 238 237 244 253 259 262 264 264 262 260 257 252 248
306 313 317 319 320 318 316 315 315 314 312 310 309 309 311 304 296 283 269 244 248 248 255 242 237 233 229 230 232 231 233 242 252 260 265 265 263 258 253 248 244 246 247
314 318 319 318 319 320 320 318 318 316 313 312 310 309 302 289 285 277 268 260 249 248 249 244 230 228 229 226 229 238 247 255 262 263 264 264 260 255 248 241 241 241 245
316 317 319 321 323 323 321 319 317 315 314 313 312 312 304 290 282 277 267 263 250 239 242 240 232 226 224 228 239 250 257 263 264 261 262 261 257 248 243 241 242 243 244
317 318 320 323 324 324 323 322 319 317 315 313 311 309 305 290 290 282 270 260 253 238 234 227 224 222 228 236 248 259 264 265 262 262 260 256 248 241 240 242 242 244 247
314 317 319 323 327 326 326 324 321 318 316 311 305 295 293 291 286 278 265 253 243 231 221 216 216 221 232 241 256 265 266 263 259 258 255 250 246 244 242 242 246 249 250
312 315 318 322 326 328 329 329 327 322 316 310 305 300 297 291 282 268 255 242 227 215 209 205 216 227 238 249 265 274 268 260 260 257 253 250 247 244 243 246 251 252 253
310 313 317 321 324 327 330 333 335 333 330 324 315 307 301 293 280 261 240 220 209 204 197 213 223 232 246 262 268 265 259 259 257 251 248 246 246 245 247 252 257 260 261